RYR716U LKPR-LIRP

Flight info

Callsign RYR716U
Flight time 1h 25m
Altitude 36000
Route DOBEN DCT RUDAP P31 DOSEL DCT KUMOM DCT DETSA/N0463F350 DCT GAVRA DCT KUGIX Y662 AKUTO L12 MAREL
Aircraft B738/M-SDE2E3FGHIRWXY/LB1

Departure

Time 2026-05-07 14:31
Airport Václav Havel Airport Prague (LKPR)

Arrival

Time 2026-05-07 15:56
Airport Pisa International Airport (LIRP)
Time Latitude Longitude Altitude Speed Heading
2026-05-07 14:13 50.10457 14.26528 1173 ft 0 kts 34°
2026-05-07 14:21 50.10453 14.26525 1173 ft 4 kts 34°
2026-05-07 14:21 50.10434 14.26498 1168 ft 4 kts 69°
2026-05-07 14:21 50.10434 14.26474 1168 ft 0 kts 124°
2026-05-07 14:24 50.10427 14.26490 1169 ft 7 kts 124°
2026-05-07 14:24 50.10391 14.26572 1172 ft 10 kts 124°
2026-05-07 14:25 50.10339 14.26606 1173 ft 10 kts 208°
2026-05-07 14:25 50.10283 14.26552 1172 ft 9 kts 216°
2026-05-07 14:25 50.10225 14.26557 1173 ft 9 kts 144°
2026-05-07 14:25 50.10183 14.26632 1175 ft 10 kts 128°
2026-05-07 14:26 50.10131 14.26738 1179 ft 15 kts 127°
2026-05-07 14:26 50.10061 14.26883 1189 ft 17 kts 127°
2026-05-07 14:26 50.09989 14.27031 1196 ft 17 kts 127°
2026-05-07 14:26 50.09919 14.27175 1200 ft 16 kts 127°
2026-05-07 14:27 50.09851 14.27311 1202 ft 16 kts 133°
2026-05-07 14:27 50.09776 14.27429 1204 ft 15 kts 136°
2026-05-07 14:27 50.09704 14.27541 1205 ft 14 kts 135°
2026-05-07 14:27 50.09630 14.27655 1209 ft 16 kts 136°
2026-05-07 14:28 50.09552 14.27773 1211 ft 15 kts 136°
2026-05-07 14:28 50.09478 14.27887 1214 ft 15 kts 135°
2026-05-07 14:28 50.09394 14.28013 1214 ft 18 kts 136°
2026-05-07 14:28 50.09305 14.28152 1214 ft 18 kts 135°
2026-05-07 14:29 50.09212 14.28271 1211 ft 17 kts 164°
2026-05-07 14:29 50.09107 14.28216 1210 ft 15 kts 217°
2026-05-07 14:29 50.09069 14.28122 1207 ft 10 kts 291°
2026-05-07 14:29 50.09086 14.28083 1207 ft 0 kts 307°
2026-05-07 14:30 50.09186 14.27874 1210 ft 62 kts 307°
2026-05-07 14:30 50.09606 14.27003 1205 ft 136 kts 307°
2026-05-07 14:30 50.10305 14.25653 1525 ft 168 kts 304°
2026-05-07 14:31 50.10992 14.24240 2608 ft 162 kts 303°
2026-05-07 14:31 50.11652 14.22853 3580 ft 158 kts 303°
2026-05-07 14:31 50.12291 14.21508 4492 ft 158 kts 302°
2026-05-07 14:31 50.12992 14.20027 4970 ft 186 kts 302°
2026-05-07 14:32 50.13820 14.18287 5184 ft 213 kts 303°
2026-05-07 14:32 50.14750 14.16345 5491 ft 232 kts 303°
2026-05-07 14:32 50.15733 14.14301 6052 ft 239 kts 303°
2026-05-07 14:32 50.16741 14.12205 6672 ft 246 kts 303°
2026-05-07 14:33 50.17781 14.09941 7098 ft 263 kts 295°
2026-05-07 14:33 50.18234 14.07213 7894 ft 262 kts 266°
2026-05-07 14:33 50.17788 14.04480 8788 ft 264 kts 241°
2026-05-07 14:33 50.16614 14.02280 9674 ft 268 kts 220°
2026-05-07 14:34 50.15109 14.00496 10361 ft 278 kts 217°
2026-05-07 14:34 50.13458 13.98658 10581 ft 305 kts 212°
2026-05-07 14:34 50.11394 13.97462 10768 ft 332 kts 190°
2026-05-07 14:34 50.09009 13.97379 11109 ft 351 kts 179°
2026-05-07 14:35 50.06543 13.97572 11765 ft 358 kts 179°
2026-05-07 14:35 50.04040 13.97738 12533 ft 361 kts 179°
2026-05-07 14:35 50.01524 13.97872 13405 ft 363 kts 180°
2026-05-07 14:35 49.99007 13.97676 14188 ft 364 kts 194°
2026-05-07 14:36 49.96671 13.96152 14917 ft 367 kts 212°
2026-05-07 14:36 49.94704 13.93608 15668 ft 372 kts 229°
2026-05-07 14:36 49.93136 13.90393 16442 ft 376 kts 233°
2026-05-07 14:36 49.91615 13.87060 17157 ft 381 kts 234°
2026-05-07 14:37 49.90081 13.83672 17848 ft 386 kts 234°
2026-05-07 14:37 49.86949 13.76837 19222 ft 391 kts 233°
2026-05-07 14:37 49.85351 13.73395 19813 ft 396 kts 233°
2026-05-07 14:38 49.83733 13.69926 20431 ft 399 kts 233°
2026-05-07 14:38 49.82092 13.66418 21008 ft 403 kts 234°
2026-05-07 14:38 49.80442 13.62897 21648 ft 405 kts 234°
2026-05-07 14:38 49.78778 13.59367 22249 ft 408 kts 232°
2026-05-07 14:39 49.76742 13.56295 22787 ft 413 kts 216°
2026-05-07 14:39 49.74179 13.54246 23388 ft 418 kts 202°
2026-05-07 14:39 49.71435 13.52702 23909 ft 421 kts 201°
2026-05-07 14:39 49.68658 13.51203 24326 ft 425 kts 201°
2026-05-07 14:40 49.65853 13.49694 24723 ft 429 kts 201°
2026-05-07 14:40 49.63027 13.48159 25123 ft 432 kts 201°
2026-05-07 14:40 49.60181 13.46596 25505 ft 436 kts 202°
2026-05-07 14:40 49.57319 13.45010 25884 ft 439 kts 202°
2026-05-07 14:41 49.54437 13.43406 26285 ft 442 kts 202°
2026-05-07 14:41 49.51539 13.41792 26664 ft 444 kts 202°
2026-05-07 14:41 49.48620 13.40166 27030 ft 447 kts 202°
2026-05-07 14:41 49.45688 13.38535 27385 ft 450 kts 202°
2026-05-07 14:42 49.42731 13.36893 27733 ft 453 kts 201°
2026-05-07 14:42 49.39756 13.35244 28070 ft 455 kts 202°
2026-05-07 14:42 49.36784 13.33600 28631 ft 453 kts 202°
2026-05-07 14:42 49.33825 13.31965 29227 ft 450 kts 202°
2026-05-07 14:43 49.30880 13.30338 29777 ft 449 kts 202°
2026-05-07 14:43 49.27942 13.28717 30215 ft 449 kts 202°
2026-05-07 14:43 49.25004 13.27098 30580 ft 449 kts 202°
2026-05-07 14:43 49.22122 13.25270 30976 ft 447 kts 208°
2026-05-07 14:44 49.19360 13.23117 31389 ft 445 kts 209°
2026-05-07 14:44 49.16618 13.20930 31813 ft 444 kts 209°
2026-05-07 14:44 49.13871 13.18791 32185 ft 444 kts 208°
2026-05-07 14:44 49.11109 13.16687 32568 ft 443 kts 208°
2026-05-07 14:45 49.08335 13.14621 32964 ft 443 kts 207°
2026-05-07 14:45 49.05562 13.12578 33391 ft 442 kts 207°
2026-05-07 14:45 49.02798 13.10545 33793 ft 441 kts 207°
2026-05-07 14:45 49.00029 13.08507 34009 ft 444 kts 207°
2026-05-07 14:46 48.94479 13.04418 34004 ft 445 kts 207°
2026-05-07 14:46 48.88945 13.00344 34012 ft 439 kts 207°
2026-05-07 14:47 48.83447 12.96304 34023 ft 439 kts 207°
2026-05-07 14:47 48.77903 12.92239 34253 ft 444 kts 207°
2026-05-07 14:48 48.75140 12.90201 34667 ft 440 kts 209°
2026-05-07 14:48 48.72542 12.87806 35053 ft 436 kts 217°
2026-05-07 14:48 48.70228 12.84862 35324 ft 435 kts 224°
2026-05-07 14:48 48.68024 12.81710 35554 ft 437 kts 224°
2026-05-07 14:49 48.65809 12.78553 35785 ft 438 kts 224°
2026-05-07 14:49 48.63575 12.75413 36025 ft 439 kts 224°
2026-05-07 14:49 48.59044 12.69133 36009 ft 442 kts 223°
2026-05-07 14:50 48.54550 12.62882 36008 ft 436 kts 224°
2026-05-07 14:50 48.50107 12.56700 36022 ft 434 kts 224°
2026-05-07 14:51 48.45507 12.50832 36008 ft 436 kts 212°
2026-05-07 14:51 48.39844 12.47532 36008 ft 442 kts 193°
2026-05-07 14:52 48.33700 12.46653 36016 ft 444 kts 187°
2026-05-07 14:52 48.27566 12.45997 36015 ft 445 kts 187°
2026-05-07 14:53 48.21385 12.45282 36016 ft 446 kts 187°
2026-05-07 14:53 48.15197 12.44521 36016 ft 447 kts 187°
2026-05-07 14:54 48.08997 12.43747 36017 ft 447 kts 187°
2026-05-07 14:54 48.02796 12.42975 36020 ft 448 kts 187°
2026-05-07 14:55 47.96581 12.42205 36008 ft 448 kts 188°
2026-05-07 14:55 47.90365 12.41437 36020 ft 448 kts 188°
2026-05-07 14:56 47.84151 12.40672 36018 ft 448 kts 188°
2026-05-07 14:56 47.77936 12.39908 36019 ft 448 kts 188°
2026-05-07 14:57 47.71724 12.39145 36017 ft 448 kts 188°
2026-05-07 14:57 47.65512 12.38385 36011 ft 447 kts 188°
2026-05-07 14:58 47.60363 12.37757 36009 ft 446 kts 188°
2026-05-07 14:58 47.54172 12.37002 35995 ft 446 kts 188°
2026-05-07 14:59 47.47983 12.36248 36011 ft 446 kts 188°
2026-05-07 14:59 47.41797 12.35495 36016 ft 446 kts 188°
2026-05-07 15:00 47.35600 12.34741 36003 ft 447 kts 188°
2026-05-07 15:00 47.29419 12.33992 36020 ft 445 kts 188°
2026-05-07 15:01 47.23238 12.33245 36019 ft 446 kts 188°
2026-05-07 15:01 47.17049 12.32498 36008 ft 446 kts 188°
2026-05-07 15:02 47.10861 12.31753 36002 ft 447 kts 188°
2026-05-07 15:02 47.04659 12.31009 35999 ft 447 kts 188°
2026-05-07 15:03 46.98455 12.30265 36020 ft 447 kts 188°
2026-05-07 15:03 46.92248 12.29524 35833 ft 448 kts 189°
2026-05-07 15:04 46.89153 12.29155 35582 ft 445 kts 189°
2026-05-07 15:04 46.86075 12.28789 35357 ft 443 kts 189°
2026-05-07 15:04 46.82997 12.28422 35158 ft 445 kts 189°
2026-05-07 15:04 46.79911 12.28052 35078 ft 445 kts 189°
2026-05-07 15:05 46.73758 12.27138 35040 ft 443 kts 191°
2026-05-07 15:05 46.67657 12.26137 35043 ft 440 kts 191°
2026-05-07 15:06 46.61559 12.25143 35026 ft 442 kts 191°
2026-05-07 15:06 46.55460 12.24170 35018 ft 441 kts 191°
2026-05-07 15:07 46.49356 12.23210 34986 ft 441 kts 191°
2026-05-07 15:07 46.43244 12.22249 34989 ft 443 kts 191°
2026-05-07 15:08 46.37113 12.21288 34969 ft 443 kts 191°
2026-05-07 15:08 46.30984 12.20331 34943 ft 444 kts 192°
2026-05-07 15:09 46.24851 12.19375 34975 ft 443 kts 192°
2026-05-07 15:09 46.18761 12.18427 34970 ft 443 kts 192°
2026-05-07 15:10 46.12589 12.17469 34965 ft 443 kts 192°
2026-05-07 15:10 46.06498 12.16526 34970 ft 443 kts 192°
2026-05-07 15:11 46.00375 12.15575 34956 ft 442 kts 192°
2026-05-07 15:11 45.94252 12.14629 34964 ft 443 kts 192°
2026-05-07 15:12 45.88129 12.13691 34956 ft 442 kts 192°
2026-05-07 15:12 45.82014 12.12754 34963 ft 442 kts 192°
2026-05-07 15:13 45.75906 12.11818 34966 ft 441 kts 192°
2026-05-07 15:13 45.69802 12.10882 34957 ft 440 kts 193°
2026-05-07 15:14 45.63713 12.09937 34960 ft 440 kts 193°
2026-05-07 15:14 45.57630 12.09007 34966 ft 439 kts 192°
2026-05-07 15:15 45.51546 12.08099 34936 ft 439 kts 193°
2026-05-07 15:15 45.45479 12.07187 34956 ft 438 kts 193°
2026-05-07 15:16 45.39419 12.06272 34966 ft 438 kts 193°
2026-05-07 15:16 45.33364 12.05357 34965 ft 437 kts 193°
2026-05-07 15:17 45.27313 12.04446 34937 ft 437 kts 193°
2026-05-07 15:17 45.21278 12.03539 34958 ft 435 kts 193°
2026-05-07 15:18 45.15259 12.02637 34963 ft 435 kts 193°
2026-05-07 15:18 45.09247 12.01738 34960 ft 433 kts 193°
2026-05-07 15:19 45.03256 12.00843 34966 ft 433 kts 193°
2026-05-07 15:19 44.97273 11.99951 34973 ft 432 kts 193°
2026-05-07 15:20 44.91287 11.99061 34966 ft 432 kts 193°
2026-05-07 15:20 44.85309 11.98173 34974 ft 432 kts 193°
2026-05-07 15:21 44.79328 11.97288 34975 ft 432 kts 193°
2026-05-07 15:21 44.73348 11.96404 34962 ft 432 kts 193°
2026-05-07 15:22 44.67370 11.95522 34972 ft 432 kts 193°
2026-05-07 15:22 44.61396 11.94643 34975 ft 432 kts 193°
2026-05-07 15:23 44.55415 11.93765 34958 ft 432 kts 192°
2026-05-07 15:23 44.49440 11.92890 34976 ft 432 kts 192°
2026-05-07 15:24 44.43464 11.92016 34987 ft 432 kts 192°
2026-05-07 15:24 44.37482 11.91143 34986 ft 432 kts 192°
2026-05-07 15:25 44.31496 11.90271 34983 ft 432 kts 192°
2026-05-07 15:25 44.25513 11.89402 34972 ft 432 kts 192°
2026-05-07 15:26 44.19536 11.88536 34966 ft 432 kts 192°
2026-05-07 15:26 44.13591 11.87674 34978 ft 432 kts 192°
2026-05-07 15:27 44.07614 11.86811 34974 ft 432 kts 192°
2026-05-07 15:27 44.01626 11.85948 34974 ft 432 kts 192°
2026-05-07 15:28 43.95653 11.85089 34982 ft 431 kts 192°
2026-05-07 15:28 43.89689 11.84231 34984 ft 431 kts 192°
2026-05-07 15:29 43.83724 11.83375 34995 ft 431 kts 192°
2026-05-07 15:29 43.80787 11.82748 34980 ft 421 kts 203°
2026-05-07 15:29 43.78182 11.81072 34993 ft 409 kts 217°
2026-05-07 15:30 43.75955 11.78677 34994 ft 403 kts 228°
2026-05-07 15:30 43.74196 11.75698 34996 ft 399 kts 237°
2026-05-07 15:30 43.72647 11.72496 34700 ft 404 kts 238°
2026-05-07 15:30 43.71120 11.69239 34158 ft 402 kts 239°
2026-05-07 15:31 43.69607 11.66011 33476 ft 399 kts 239°
2026-05-07 15:31 43.68087 11.62803 32736 ft 398 kts 239°
2026-05-07 15:31 43.66563 11.59618 32038 ft 397 kts 239°
2026-05-07 15:31 43.65034 11.56445 31291 ft 397 kts 238°
2026-05-07 15:32 43.63499 11.53275 30530 ft 397 kts 239°
2026-05-07 15:32 43.61965 11.50111 29724 ft 397 kts 239°
2026-05-07 15:32 43.60430 11.46949 28865 ft 395 kts 239°
2026-05-07 15:32 43.58900 11.43802 28107 ft 393 kts 239°
2026-05-07 15:33 43.57415 11.40688 27511 ft 384 kts 242°
2026-05-07 15:33 43.56326 11.37385 26978 ft 376 kts 251°
2026-05-07 15:33 43.55561 11.33907 26418 ft 386 kts 256°
2026-05-07 15:33 43.55071 11.30175 25793 ft 405 kts 264°
2026-05-07 15:34 43.54970 11.26294 25173 ft 402 kts 268°
2026-05-07 15:34 43.54944 11.22471 24575 ft 396 kts 268°
2026-05-07 15:34 43.54918 11.18699 23983 ft 390 kts 268°
2026-05-07 15:34 43.54876 11.14986 23361 ft 386 kts 268°
2026-05-07 15:35 43.54820 11.11312 22707 ft 381 kts 267°
2026-05-07 15:35 43.54758 11.07679 22121 ft 377 kts 266°
2026-05-07 15:35 43.54468 11.04120 21540 ft 372 kts 258°
2026-05-07 15:35 43.53792 11.00697 20942 ft 371 kts 250°
2026-05-07 15:36 43.52881 10.97378 20390 ft 382 kts 250°
2026-05-07 15:36 43.51908 10.93861 19790 ft 391 kts 250°
2026-05-07 15:36 43.50965 10.90425 19209 ft 386 kts 250°
2026-05-07 15:36 43.50016 10.86938 18631 ft 381 kts 250°
2026-05-07 15:37 43.49109 10.83591 18050 ft 376 kts 250°
2026-05-07 15:37 43.48200 10.80232 17444 ft 372 kts 250°
2026-05-07 15:37 43.47238 10.76956 16854 ft 368 kts 242°
2026-05-07 15:37 43.45657 10.74231 16335 ft 365 kts 223°
2026-05-07 15:38 43.43566 10.72255 15769 ft 368 kts 207°
2026-05-07 15:38 43.41171 10.71026 15243 ft 367 kts 200°
2026-05-07 15:38 43.38735 10.69955 15014 ft 369 kts 199°
2026-05-07 15:38 43.36279 10.68853 14816 ft 368 kts 200°
2026-05-07 15:39 43.33892 10.67757 14655 ft 354 kts 200°
2026-05-07 15:39 43.31750 10.66273 14469 ft 339 kts 220°
2026-05-07 15:39 43.30237 10.63903 14351 ft 325 kts 239°
2026-05-07 15:39 43.29373 10.61109 14227 ft 313 kts 254°
2026-05-07 15:40 43.29059 10.58204 14086 ft 304 kts 270°
2026-05-07 15:40 43.29267 10.55365 13983 ft 295 kts 281°
2026-05-07 15:40 43.30094 10.52843 13852 ft 289 kts 308°
2026-05-07 15:40 43.31583 10.51024 13596 ft 288 kts 327°
2026-05-07 15:41 43.33426 10.49987 13333 ft 287 kts 344°
2026-05-07 15:41 43.35360 10.49366 13057 ft 285 kts 345°
2026-05-07 15:41 43.37290 10.48771 12767 ft 283 kts 345°
2026-05-07 15:41 43.39201 10.48170 12484 ft 281 kts 345°
2026-05-07 15:42 43.41120 10.47567 12128 ft 284 kts 348°
2026-05-07 15:42 43.43083 10.47720 11785 ft 285 kts 15°
2026-05-07 15:42 43.44845 10.48917 11326 ft 285 kts 36°
2026-05-07 15:42 43.46390 10.50576 10963 ft 278 kts 31°
2026-05-07 15:43 43.47570 10.51290 10712 ft 272 kts 10°
2026-05-07 15:43 43.49385 10.51284 10299 ft 265 kts 342°
2026-05-07 15:43 43.51019 10.50183 9989 ft 255 kts 321°
2026-05-07 15:43 43.52211 10.48455 9696 ft 245 kts 306°
2026-05-07 15:44 43.53204 10.46644 9550 ft 234 kts 305°
2026-05-07 15:44 43.53906 10.44693 9413 ft 227 kts 277°
2026-05-07 15:44 43.53762 10.42539 9264 ft 230 kts 249°
2026-05-07 15:44 43.52899 10.40686 9045 ft 232 kts 224°
2026-05-07 15:45 43.51638 10.39315 8822 ft 229 kts 218°
2026-05-07 15:45 43.50360 10.38020 8581 ft 229 kts 218°
2026-05-07 15:45 43.49079 10.36718 8358 ft 228 kts 218°
2026-05-07 15:45 43.47816 10.35433 8110 ft 225 kts 218°
2026-05-07 15:46 43.45275 10.32835 7642 ft 227 kts 218°
2026-05-07 15:46 43.44019 10.31549 7399 ft 225 kts 218°
2026-05-07 15:46 43.42757 10.30256 7167 ft 226 kts 218°
2026-05-07 15:47 43.41505 10.28975 6960 ft 224 kts 218°
2026-05-07 15:47 43.40257 10.27696 6754 ft 225 kts 218°
2026-05-07 15:47 43.38996 10.26406 6582 ft 227 kts 218°
2026-05-07 15:47 43.37727 10.25108 6386 ft 227 kts 218°
2026-05-07 15:48 43.36620 10.23598 6132 ft 225 kts 244°
2026-05-07 15:48 43.36315 10.21532 5965 ft 222 kts 273°
2026-05-07 15:48 43.36732 10.19505 5773 ft 224 kts 301°
2026-05-07 15:48 43.37643 10.17758 5606 ft 226 kts 306°
2026-05-07 15:49 43.38594 10.16025 5408 ft 228 kts 306°
2026-05-07 15:49 43.39556 10.14300 5199 ft 227 kts 311°
2026-05-07 15:49 43.40874 10.13171 4976 ft 228 kts 349°
2026-05-07 15:49 43.42417 10.13461 4805 ft 227 kts 25°
2026-05-07 15:50 43.43798 10.14504 4613 ft 226 kts 27°
2026-05-07 15:50 43.45168 10.15577 4389 ft 227 kts 31°
2026-05-07 15:50 43.46485 10.16778 4203 ft 227 kts 34°
2026-05-07 15:50 43.47766 10.18059 4002 ft 227 kts 36°
2026-05-07 15:51 43.49032 10.19367 3816 ft 227 kts 36°
2026-05-07 15:51 43.50291 10.20674 3591 ft 226 kts 37°
2026-05-07 15:51 43.51540 10.21973 3399 ft 224 kts 37°
2026-05-07 15:51 43.52767 10.23247 3200 ft 217 kts 37°
2026-05-07 15:52 43.53947 10.24471 3034 ft 208 kts 37°
2026-05-07 15:52 43.55079 10.25647 2853 ft 200 kts 36°
2026-05-07 15:52 43.56170 10.26778 2754 ft 197 kts 36°
2026-05-07 15:52 43.57282 10.27931 2495 ft 200 kts 36°
2026-05-07 15:53 43.58389 10.29079 2236 ft 198 kts 36°
2026-05-07 15:53 43.59469 10.30200 1985 ft 191 kts 34°
2026-05-07 15:53 43.60507 10.31271 1688 ft 182 kts 34°
2026-05-07 15:53 43.61483 10.32281 1489 ft 169 kts 35°
2026-05-07 15:54 43.62368 10.33210 1375 ft 148 kts 33°
2026-05-07 15:54 43.63201 10.34066 1105 ft 150 kts 32°
2026-05-07 15:54 43.64028 10.34923 888 ft 144 kts 32°
2026-05-07 15:54 43.64835 10.35758 691 ft 146 kts 33°
2026-05-07 15:55 43.65642 10.36592 485 ft 143 kts 33°
2026-05-07 15:55 43.66430 10.37414 288 ft 140 kts 33°
2026-05-07 15:55 43.67205 10.38221 114 ft 140 kts 33°
2026-05-07 15:55 43.67966 10.39011 17 ft 127 kts 32°
2026-05-07 15:56 43.68595 10.39647 17 ft 95 kts 37°
2026-05-07 15:56 43.68993 10.40066 18 ft 47 kts 37°
2026-05-07 15:56 43.69180 10.40255 19 ft 17 kts 33°
2026-05-07 15:56 43.69284 10.40275 18 ft 17 kts 322°
2026-05-07 15:57 43.69358 10.40155 21 ft 16 kts 309°
2026-05-07 15:57 43.69460 10.40091 17 ft 18 kts 354°
2026-05-07 15:57 43.69589 10.40069 14 ft 17 kts 354°
2026-05-07 15:57 43.69661 10.40048 14 ft 10 kts 327°
2026-05-07 15:58 43.69689 10.39964 14 ft 10 kts 282°
2026-05-07 15:58 43.69691 10.39950 14 ft 2 kts 281°
2026-05-07 15:58 43.69699 10.39894 14 ft 9 kts 279°
2026-05-07 15:58 43.69717 10.39852 14 ft 4 kts 344°
2026-05-07 15:59 43.69748 10.39858 14 ft 4 kts
2026-05-07 15:59 43.69764 10.39861 14 ft 1 kts
2026-05-07 15:59 43.69768 10.39862 14 ft 0 kts